Address 0xa28300703259f0c0c8a5c1a18f796f571f35cac4

 

Overview

Balance:
0.199046147739879984 ETH

ETH Value:
$334.09 (@ $1,678.45/ETH)
Txn Hash Method
Block
From
To
Value [Txn Fee]
0x779de182b4999571efc2a0146f026b7be09491e92066b9b91300d28c7c5905050x028f8a09590380532023-02-08 7:50:003 mins ago0xa28300703259f0c0c8a5c1a18f796f571f35cac4OUT 0xe0f8ce7a84406fa4e6c566c725bdc77632a985ed0 ETH0.00041791
0xa2b1f56781aed5c38bdbd66b1b3abb5ad5a2393fce450a074da0508407697b4f0x028f2a09590379412023-02-08 7:49:313 mins ago0xa28300703259f0c0c8a5c1a18f796f571f35cac4OUT 0xe0f8ce7a84406fa4e6c566c725bdc77632a985ed0 ETH0.00042379
0xf13906ec3d5914331487198fc230901a41c6249dcf2af42bf010cc4d79d039700x015f9301590343412023-02-08 7:33:5919 mins ago0xa28300703259f0c0c8a5c1a18f796f571f35cac4OUT 0xe0f8ce7a84406fa4e6c566c725bdc77632a985ed0 ETH0.00041659
0xd57d47f270bd9d60b93b1943d0035bae0e22628db125086dd17cef2bb8f7280a0x024e3609590330052023-02-08 7:28:0725 mins ago0xa28300703259f0c0c8a5c1a18f796f571f35cac4OUT 0xe0f8ce7a84406fa4e6c566c725bdc77632a985ed0 ETH0.00042258
0x402e2c6bc44590987938f191be17c7cd0fe8aa3ad366935509180592e2788e7d0x00c4bc09590329352023-02-08 7:27:4925 mins ago0xa28300703259f0c0c8a5c1a18f796f571f35cac4OUT 0xe0f8ce7a84406fa4e6c566c725bdc77632a985ed0 ETH0.00041485
0x69ebd6b904fafa896b9715a3dd5013d0580960aeef9d26a3cbfc28c000de16be0x00418e09590329292023-02-08 7:27:4725 mins ago0xa28300703259f0c0c8a5c1a18f796f571f35cac4OUT 0xe0f8ce7a84406fa4e6c566c725bdc77632a985ed0 ETH0.00041485
0xd710bc0a9d2f511a36577c45cf58cfb80b4e9e14404dc1ca3d1a2f8cf26560c50x01064709590326602023-02-08 7:26:3426 mins ago0xa28300703259f0c0c8a5c1a18f796f571f35cac4OUT 0xe0f8ce7a84406fa4e6c566c725bdc77632a985ed0 ETH0.00041487
0x03bf90ca9ad63e150250f6842ae35aa971873628d337f02ded1806e3f4b83d3d0x01063309590326282023-02-08 7:26:2626 mins ago0xa28300703259f0c0c8a5c1a18f796f571f35cac4OUT 0xe0f8ce7a84406fa4e6c566c725bdc77632a985ed0 ETH0.00042354
0xfc13ea16c946e1d50679be9ec78b9afbce2040e8352faef7920740c7e1c9095c0x01475809590280762023-02-08 7:06:3346 mins ago0xa28300703259f0c0c8a5c1a18f796f571f35cac4OUT 0xe0f8ce7a84406fa4e6c566c725bdc77632a985ed0 ETH0.00039708
0xbbc846c76deda6fd95c586628a568ea24e086666d4af71161cc5be8826a1f9860x028e5809590278232023-02-08 7:05:3347 mins ago0xa28300703259f0c0c8a5c1a18f796f571f35cac4OUT 0xe0f8ce7a84406fa4e6c566c725bdc77632a985ed0 ETH0.00041911
0x50e0ba748126ed84697542265527d3cde71b1e15bbd7d17ddad92436074330e90x028e4b09590278192023-02-08 7:05:3247 mins ago0xa28300703259f0c0c8a5c1a18f796f571f35cac4OUT 0xe0f8ce7a84406fa4e6c566c725bdc77632a985ed0 ETH0.00045007
0xc3bee266e95dc788c594cde58a546fb4e331994ef1940d7b30046ee8ce52bf140x028e0609590277322023-02-08 7:05:0948 mins ago0xa28300703259f0c0c8a5c1a18f796f571f35cac4OUT 0xe0f8ce7a84406fa4e6c566c725bdc77632a985ed0 ETH0.00041913
0x6beb2bb21c1f870f991ddf241a97c6477f08d5f542eb70df57d424e99f78ad150x028e5309590275892023-02-08 7:04:3148 mins ago0xa28300703259f0c0c8a5c1a18f796f571f35cac4OUT 0xe0f8ce7a84406fa4e6c566c725bdc77632a985ed0 ETH0.00041911
0x01107d48509e11c1e50d9aaa593f2547ce8f23168830e97a88fc3057d7110fd70x028e4609590275492023-02-08 7:04:2048 mins ago0xa28300703259f0c0c8a5c1a18f796f571f35cac4OUT 0xe0f8ce7a84406fa4e6c566c725bdc77632a985ed0 ETH0.00045007
0xf48440aa53075a8a334365c92219c2445196d9b694eefa11a98994b3598ad5760x028e2109590274962023-02-08 7:04:0649 mins ago0xa28300703259f0c0c8a5c1a18f796f571f35cac4OUT 0xe0f8ce7a84406fa4e6c566c725bdc77632a985ed0 ETH0.0004201
0x10ba27f7ddb94bb7bd9636aaee534592960724d53b42894fd66c1a1a4a71378a0x028e1309590274752023-02-08 7:04:0149 mins ago0xa28300703259f0c0c8a5c1a18f796f571f35cac4OUT 0xe0f8ce7a84406fa4e6c566c725bdc77632a985ed0 ETH0.00042009
0x4ea3490c3306c38f5f18dbbf8c5f3dde2a7a79e0ad2ef113f17647eee0a063000x028e0709590274652023-02-08 7:03:5849 mins ago0xa28300703259f0c0c8a5c1a18f796f571f35cac4OUT 0xe0f8ce7a84406fa4e6c566c725bdc77632a985ed0 ETH0.00041913
0x173b5db484c627eecdc615a97edaf6302069909343cbc4b287f280b59578b98c0x028dfe09590274602023-02-08 7:03:5749 mins ago0xa28300703259f0c0c8a5c1a18f796f571f35cac4OUT 0xe0f8ce7a84406fa4e6c566c725bdc77632a985ed0 ETH0.00041146
0x0cf953149379220e176462ae9f82a9beea99d864cf61dc5e2772083788f720e50x00416009590274412023-02-08 7:03:5249 mins ago0xa28300703259f0c0c8a5c1a18f796f571f35cac4OUT 0xe0f8ce7a84406fa4e6c566c725bdc77632a985ed0 ETH0.00042009
0x2210584f9223856ed4c072cf06286e9a075528e3d895379473b2e7613a8cb30a0x024c8709590274372023-02-08 7:03:5149 mins ago0xa28300703259f0c0c8a5c1a18f796f571f35cac4OUT 0xe0f8ce7a84406fa4e6c566c725bdc77632a985ed0 ETH0.00041144
0x7a1858249945aa2035c2b69fb07922f8339027351270d2f42bb90855f6a9359c0x028dc509590274272023-02-08 7:03:4849 mins ago0xa28300703259f0c0c8a5c1a18f796f571f35cac4OUT 0xe0f8ce7a84406fa4e6c566c725bdc77632a985ed0 ETH0.00042008
0x17ef25791b29cce504bd5a6324739c7c29b72860dde29f07fd01859bc2f8ee7a0x028dd009590274122023-02-08 7:03:4449 mins ago0xa28300703259f0c0c8a5c1a18f796f571f35cac4OUT 0xe0f8ce7a84406fa4e6c566c725bdc77632a985ed0 ETH0.00041144
0x7fae8d3843934e8f44b359a16fef27ca08c806b5a7b46e41b9bb7bf85537d9c60x024d9309590162552023-02-08 6:14:191 hr 38 mins ago0xa28300703259f0c0c8a5c1a18f796f571f35cac4OUT 0xe0f8ce7a84406fa4e6c566c725bdc77632a985ed0 ETH0.00039224
0xbfc99b517825f8424032b8871ef88b252a87546e7b7ecc81a1d50b9318a574140x024d6e09590162192023-02-08 6:14:091 hr 39 mins ago0xa28300703259f0c0c8a5c1a18f796f571f35cac4OUT 0xe0f8ce7a84406fa4e6c566c725bdc77632a985ed0 ETH0.00042374
0x1e197f52beabe43fb722feb5df42a976d1c9050a3bda694f1fd078019f0125400x02cfab09590159252023-02-08 6:12:501 hr 40 mins ago0xa28300703259f0c0c8a5c1a18f796f571f35cac4OUT 0xe0f8ce7a84406fa4e6c566c725bdc77632a985ed0 ETH0.00039149
[ Download CSV Export 
Latest 7 internal transactions
Parent Txn Hash Block From To Value
0x73500f34c958c5adb90fe045f30cc36f7063e38cbc34775eb49425239b3547a0579070902023-02-04 9:09:273 days 22 hrs ago 0x82af49447d8a07e3bd95bd0d56f35241523fbab10xa28300703259f0c0c8a5c1a18f796f571f35cac40.20001953417932 ETH
0x1bbd91445ebb17c1e0c37af9c79d51ef20d30eb7d8e40baa161ecb4dfb1b6f36558431412023-01-27 11:15:0111 days 20 hrs ago 0x82af49447d8a07e3bd95bd0d56f35241523fbab10xa28300703259f0c0c8a5c1a18f796f571f35cac40.20025207482712 ETH
0x8c8fca4e7bdb88ec76adf1f039741c315e4b3244577cfdaaa541e9fdc1b2c5c3539416972023-01-18 17:48:5720 days 14 hrs ago 0x82af49447d8a07e3bd95bd0d56f35241523fbab10xa28300703259f0c0c8a5c1a18f796f571f35cac40.200106937920889984 ETH
0x9ebfda2e513f209982f394d7a2434cbbbd644699db7ef046b410b6c00fa1b347524460612023-01-12 2:50:4327 days 5 hrs ago 0x82af49447d8a07e3bd95bd0d56f35241523fbab10xa28300703259f0c0c8a5c1a18f796f571f35cac40.200104343529510016 ETH
0xfa0e834bbf97cd44b3184f9cc4fd55783e720f40026b6d9280b1b7a5475df9df492188652022-12-27 14:38:3442 days 17 hrs ago 0x82af49447d8a07e3bd95bd0d56f35241523fbab10xa28300703259f0c0c8a5c1a18f796f571f35cac40.200058925353259968 ETH
0x6ac8c9074843e3eac91baa299c1f21a7db9fbcf28ba75ac7a2af3422923b443b459580192022-12-14 1:03:5156 days 6 hrs ago 0x82af49447d8a07e3bd95bd0d56f35241523fbab10xa28300703259f0c0c8a5c1a18f796f571f35cac40.200080066087990016 ETH
0xd32be1fb28da17aa0b7c67aec1b128ecd961bb534477497b520d85425d0f7953424172492022-11-30 11:07:2069 days 20 hrs ago 0x82af49447d8a07e3bd95bd0d56f35241523fbab10xa28300703259f0c0c8a5c1a18f796f571f35cac40.290186502 ETH
[ Download CSV Export 
Loading

Contract Name:
0 ETH

Compiler Version
0

Optimization Enabled:
0 ETH

Other Settings:
-NA-
Block Transaction Gas Used Reward
Age Block Fee Address BC Fee Address Voting Power Jailed Incoming
Block Uncle Number Difficulty Gas Used Reward
Loading
Make sure to use the "Vote Down" button for any spammy posts, and the "Vote Up" for interesting conversations.